Regional Weather Roundup
Issued by NWS State College, PA

Home | Current Version | Previous Version | Text Only | Print | Product List | Glossary Off
Versions: 1 2 3 4 5 6 7 8 9 10 11 12 13 14 15 16 17 18 19 20 21 22 23 24 25 26 27 28 29 30 31 32 33 34 35 36 37 38 39 40 41 42 43 44 45 46 47 48 49 50

000
ASUS41 KCTP 262003
RWRCTP

REGIONAL WEATHER ROUNDUP
NATIONAL WEATHER SERVICE STATE COLLEGE PA
400 PM EDT MON JUN 26 2017

Note: "fair" indicates few or no clouds below 12,000 feet with no
significant weather and/or obstructions to visibility.

* = STATION THAT DOES NOT REPORT PRECIPITATION /E.G. RAIN...SNOW...ETC/
    THUNDER OR FOG.

PAZ002>004-007>009-013>016-020>023-029>032-262100-
WESTERN PENNSYLVANIA

CITY           SKY/WX    TMP DP  RH WIND       PRES   REMARKS
ERIE           SUNNY     68  50  52 W16G29    30.00F
MEADVILLE      PTSUNNY   65  52  62 W13G21    30.03S
FRANKLIN*      PTSUNNY   63  48  59 NW6       30.04S
NEW CASTLE     NOT AVBL
BEAVER COUNTY  CLOUDY    68  50  52 SW10G17   30.04F
BUTLER*        MOSUNNY   72  48  43 W9G20     30.03F
PITTSBURGH INT PTSUNNY   70  47  43 W8        30.04S
PITTSBURGH     PTSUNNY   73  44  35 SW13G26   30.03F
INDIANA*       MOSUNNY   72  50  46 W9G18     30.06F
LATROBE        PTSUNNY   70  50  49 W14       30.06S
WASHINGTON CO* MOSUNNY   72  45  37 SW15G21   30.07F
$$

PAZ004>006-010>012-017>019-024>028-033>037-041-042-045-046-049>053-262100-
CENTRAL PENNSYLVANIA

CITY           SKY/WX    TMP DP  RH WIND       PRES   REMARKS
BRADFORD       RAIN      55  52  89 NW12      30.04R
DUBOIS         PTSUNNY   68  46  45 SW12      30.02F
CLEARFIELD     PTSUNNY   69  46  43 SW10G24   30.02F
JOHNSTOWN      MOSUNNY   69  46  43 SW14      30.06F
ALTOONA        CLOUDY    74  50  42 W10       30.05F
STATE COLLEGE  PTSUNNY   72  48  43 SW13G20   30.03F
WILLIAMSPORT   PTSUNNY   76  48  37 SW10G20   29.97F
SELINSGROVE    PTSUNNY   76  47  35 SW10G17   30.01F
FT INDIANTOWN  MOSUNNY   77  47  34 W9        30.02S
CAPITAL CITY   PTSUNNY   79  45  29 SW13      30.02F
HARRISBURG     MOSUNNY   78  48  34 W7        30.01F
YORK           PTSUNNY   76  48  37 W7        30.03F
$$

PAZ038>040-043-044-047-048-054-055-060>062-067>071-262100-
EASTERN PENNSYLVANIA

CITY           SKY/WX    TMP DP  RH WIND       PRES   REMARKS
SCRANTON       MOSUNNY   76  47  35 SW12G20   29.99F
MOUNT POCONO   MOSUNNY   70  43  37 W14G21    30.04S
ALLENTOWN      MOSUNNY   79  48  33 SW10      30.01S
QUAKERTOWN*    PTCLDY    75  48  38 W7        30.03S
READING        MOSUNNY   78  51  38 W9G18     30.00F
LANCASTER      PTSUNNY   77  48  35 W10       30.02F
COATESVILLE    PTCLDY    75  48  38 VRB5      30.05S
POTTSTOWN      MOSUNNY   76  46  34 SW7       30.03F
BLUE BELL      MOSUNNY   77  48  36 W6        30.03F
DOYLESTOWN     MOSUNNY   78  47  33 W8        30.01F
WILLOW GROVE   NOT AVBL
NORTH PHILA    MOSUNNY   81  49  32 W10       30.02F
PHILADELPHIA   MOSUNNY   80  45  28 SW12      30.02S
$$



USA.gov is the U.S. government's official web portal to all federal, state and local government web resources and services.